sat.trackr.live / text

‹ back to catalog

STARLINK-31207

NORAD 59035 · 2024-038N

PAYLOAD ACTIVE UNKNOWN

§ Identity

Operator
Country
US
Launch date
2024-02-25
Launch site
AFETR
Launch vehicle
Mass (kg)
RCS (m²)

Purposes: comms

External: N2YO · Heavens-Above · Gunter

§ Orbital elements

Epoch: 2026-09-20T18:30:23.487552Z

Period
94.27 min
Inclination
43.0023°
Eccentricity
0.0000555
Mean motion
15.27583327 rev/d
Perigee alt
482.7 km
Apogee alt
483.4 km
Semi-major
6,861.2 km
B*
4.0706e-5
RAAN
1.8282°
Arg perigee
313.1447°
Mean anomaly
46.9358°
Rev number
14,469

§ Raw data

STARLINK-312071 59035U 24038N   26263.77110518  .00000859  00000+0  40706-4 0  99902 59035  43.0023   1.8282 0000555 313.1447  46.9358 15.27583327144697

JSON: /api/v1/satellites/59035 · /tle

For live sub-satellite position, see the globe view (requires WebGL).

§ Visibility from observer

Set your observer location to see the next 7 days of passes ≥ 10°. The values pass through the URL so the page stays shareable.

No JS? Fill the form by hand. The geolocation button needs JavaScript.